Year,Month,Day,Hour,Minute,Value (Times are PST for temperature in C)
2009,01,26,00,00,-2.60
2009,01,26,00,01,-2.60
2009,01,26,00,02,-2.60
2009,01,26,00,03,-2.70
2009,01,26,00,04,-2.70
2009,01,26,00,05,-2.70
2009,01,26,00,06,-2.70
2009,01,26,00,07,-2.70
2009,01,26,00,08,-2.70
2009,01,26,00,09,-2.70
2009,01,26,00,10,-2.70
2009,01,26,00,11,-2.70
2009,01,26,00,12,-2.70
2009,01,26,00,13,-2.70
2009,01,26,00,14,-2.70
2009,01,26,00,15,-2.70
2009,01,26,00,16,-2.60
2009,01,26,00,17,-2.60
2009,01,26,00,18,-2.60
2009,01,26,00,19,-2.60
2009,01,26,00,20,-2.60
2009,01,26,00,21,-2.60
2009,01,26,00,22,-2.60
2009,01,26,00,23,-2.70
2009,01,26,00,24,-2.70
2009,01,26,00,25,-2.70
2009,01,26,00,26,-2.70
2009,01,26,00,27,-2.70
2009,01,26,00,28,-2.70
2009,01,26,00,29,-2.80
2009,01,26,00,30,-2.80
2009,01,26,00,31,-2.80
2009,01,26,00,32,-2.80
2009,01,26,00,33,-2.80
2009,01,26,00,34,-2.80
2009,01,26,00,35,-2.80
2009,01,26,00,36,-2.80
2009,01,26,00,37,-2.70
2009,01,26,00,38,-2.70
2009,01,26,00,39,-2.70
2009,01,26,00,40,-2.70
2009,01,26,00,41,-2.70
2009,01,26,00,42,-2.70
2009,01,26,00,43,-2.60
2009,01,26,00,44,-2.60
2009,01,26,00,45,-2.60
2009,01,26,00,46,-2.60
2009,01,26,00,47,-2.60
2009,01,26,00,48,-2.50
2009,01,26,00,49,-2.50
2009,01,26,00,50,-2.50
2009,01,26,00,51,-2.50
2009,01,26,00,52,-2.50
2009,01,26,00,53,-2.50
2009,01,26,00,54,-2.50
2009,01,26,00,55,-2.60
2009,01,26,00,56,-2.50
2009,01,26,00,57,-2.50
2009,01,26,00,58,-2.60
2009,01,26,00,59,-2.60
2009,01,26,01,00,-2.50
2009,01,26,01,01,-2.50
2009,01,26,01,02,-2.50
2009,01,26,01,03,-2.50
2009,01,26,01,04,-2.50
2009,01,26,01,05,-2.50
2009,01,26,01,06,-2.50
2009,01,26,01,07,-2.50
2009,01,26,01,08,-2.50
2009,01,26,01,09,-2.50
2009,01,26,01,10,-2.50
2009,01,26,01,11,-2.50
2009,01,26,01,12,-2.50
2009,01,26,01,13,-2.40
2009,01,26,01,14,-2.50
2009,01,26,01,15,-2.50
2009,01,26,01,16,-2.50
2009,01,26,01,17,-2.50
2009,01,26,01,18,-2.50
2009,01,26,01,19,-2.50
2009,01,26,01,20,-2.50
2009,01,26,01,21,-2.50
2009,01,26,01,22,-2.50
2009,01,26,01,23,-2.50
2009,01,26,01,24,-2.50
2009,01,26,01,25,-2.50
2009,01,26,01,26,-2.50
2009,01,26,01,27,-2.50
2009,01,26,01,28,-2.50
2009,01,26,01,29,-2.50
2009,01,26,01,30,-2.50
2009,01,26,01,31,-2.50
2009,01,26,01,32,-2.50
2009,01,26,01,33,-2.60
2009,01,26,01,34,-2.60
2009,01,26,01,35,-2.60
2009,01,26,01,36,-2.60
2009,01,26,01,37,-2.60
2009,01,26,01,38,-2.60
2009,01,26,01,39,-2.60
2009,01,26,01,40,-2.60
2009,01,26,01,41,-2.50
2009,01,26,01,42,-2.50
2009,01,26,01,43,-2.50
2009,01,26,01,44,-2.50
2009,01,26,01,45,-2.50
2009,01,26,01,46,-2.50
2009,01,26,01,47,-2.50
2009,01,26,01,48,-2.50
2009,01,26,01,49,-2.50
2009,01,26,01,50,-2.50
2009,01,26,01,51,-2.60
2009,01,26,01,52,-2.60
2009,01,26,01,53,-2.60
2009,01,26,01,54,-2.60
2009,01,26,01,55,-2.60
2009,01,26,01,56,-2.60
2009,01,26,01,57,-2.70
2009,01,26,01,58,-2.70
2009,01,26,01,59,-2.70
2009,01,26,02,00,-2.70
2009,01,26,02,01,-2.70
2009,01,26,02,02,-2.80
2009,01,26,02,03,-2.70
2009,01,26,02,04,-2.70
2009,01,26,02,05,-2.70
2009,01,26,02,06,-2.70
2009,01,26,02,07,-2.80
2009,01,26,02,08,-2.80
2009,01,26,02,09,-2.80
2009,01,26,02,10,-2.80
2009,01,26,02,11,-2.80
2009,01,26,02,12,-2.80
2009,01,26,02,13,-2.80
2009,01,26,02,14,-2.80
2009,01,26,02,15,-2.80
2009,01,26,02,16,-2.80
2009,01,26,02,17,-2.80
2009,01,26,02,18,-2.80
2009,01,26,02,19,-2.90
2009,01,26,02,20,-2.90
2009,01,26,02,21,-2.90
2009,01,26,02,22,-2.90
2009,01,26,02,23,-2.80
2009,01,26,02,24,-2.80
2009,01,26,02,25,-2.80
2009,01,26,02,26,-2.80
2009,01,26,02,27,-2.80
2009,01,26,02,28,-2.80
2009,01,26,02,29,-2.80
2009,01,26,02,30,-2.80
2009,01,26,02,31,-2.80
2009,01,26,02,32,-2.70
2009,01,26,02,33,-2.70
2009,01,26,02,34,-2.70
2009,01,26,02,35,-2.70
2009,01,26,02,36,-2.70
2009,01,26,02,37,-2.70
2009,01,26,02,38,-2.70
2009,01,26,02,39,-2.80
2009,01,26,02,40,-2.80
2009,01,26,02,41,-2.80
2009,01,26,02,42,-2.80
2009,01,26,02,43,-2.90
2009,01,26,02,44,-2.90
2009,01,26,02,45,-2.90
2009,01,26,02,46,-3.00
2009,01,26,02,47,-3.00
2009,01,26,02,48,-3.10
2009,01,26,02,49,-3.10
2009,01,26,02,50,-3.20
2009,01,26,02,51,-3.20
2009,01,26,02,52,-3.20
2009,01,26,02,53,-3.20
2009,01,26,02,54,-3.20
2009,01,26,02,55,-3.20
2009,01,26,02,56,-3.20
2009,01,26,02,57,-3.20
2009,01,26,02,58,-3.20
2009,01,26,02,59,-3.10
2009,01,26,03,00,-3.10
2009,01,26,03,01,-3.10
2009,01,26,03,02,-3.10
2009,01,26,03,03,-3.10
2009,01,26,03,04,-3.10
2009,01,26,03,05,-3.10
2009,01,26,03,06,-3.00
2009,01,26,03,07,-3.00
2009,01,26,03,08,-3.00
2009,01,26,03,09,-3.00
2009,01,26,03,10,-3.00
2009,01,26,03,11,-3.00
2009,01,26,03,12,-3.00
2009,01,26,03,13,-3.00
2009,01,26,03,14,-3.00
2009,01,26,03,15,-3.00
2009,01,26,03,16,-3.00
2009,01,26,03,17,-3.00
2009,01,26,03,18,-2.90
2009,01,26,03,19,-2.90
2009,01,26,03,20,-2.90
2009,01,26,03,21,-2.90
2009,01,26,03,22,-2.90
2009,01,26,03,23,-2.90
2009,01,26,03,24,-2.90
2009,01,26,03,25,-2.90
2009,01,26,03,26,-2.90
2009,01,26,03,27,-2.90
2009,01,26,03,28,-2.90
2009,01,26,03,29,-3.00
2009,01,26,03,30,-3.00
2009,01,26,03,31,-3.00
2009,01,26,03,32,-3.10
2009,01,26,03,33,-3.10
2009,01,26,03,34,-3.10
2009,01,26,03,35,-3.10
2009,01,26,03,36,-3.10
2009,01,26,03,37,-3.10
2009,01,26,03,38,-3.10
2009,01,26,03,39,-3.10
2009,01,26,03,40,-3.10
2009,01,26,03,41,-3.10
2009,01,26,03,42,-3.10
2009,01,26,03,43,-3.10
2009,01,26,03,44,-3.10
2009,01,26,03,45,-3.10
2009,01,26,03,46,-3.20
2009,01,26,03,47,-3.20
2009,01,26,03,48,-3.20
2009,01,26,03,49,-3.20
2009,01,26,03,50,-3.20
2009,01,26,03,51,-3.20
2009,01,26,03,52,-3.20
2009,01,26,03,53,-3.20
2009,01,26,03,54,-3.20
2009,01,26,03,55,-3.20
2009,01,26,03,56,-3.20
2009,01,26,03,57,-3.20
2009,01,26,03,58,-3.20
2009,01,26,03,59,-3.20
2009,01,26,04,00,-3.20
2009,01,26,04,01,-3.10
2009,01,26,04,02,-3.10
2009,01,26,04,03,-3.10
2009,01,26,04,04,-3.00
2009,01,26,04,05,-3.00
2009,01,26,04,06,-3.00
2009,01,26,04,07,-2.90
2009,01,26,04,08,-2.90
2009,01,26,04,09,-2.90
2009,01,26,04,10,-3.00
2009,01,26,04,11,-3.00
2009,01,26,04,12,-3.00
2009,01,26,04,13,-3.00
2009,01,26,04,14,-3.10
2009,01,26,04,15,-3.10
2009,01,26,04,16,-3.10
2009,01,26,04,17,-3.10
2009,01,26,04,18,-3.10
2009,01,26,04,19,-3.10
2009,01,26,04,20,-3.10
2009,01,26,04,21,-3.20
2009,01,26,04,22,-3.20
2009,01,26,04,23,-3.20
2009,01,26,04,24,-3.20
2009,01,26,04,25,-3.30
2009,01,26,04,26,-3.30
2009,01,26,04,27,-3.30
2009,01,26,04,28,-3.30
2009,01,26,04,29,-3.30
2009,01,26,04,30,-3.30
2009,01,26,04,31,-3.20
2009,01,26,04,32,-3.20
2009,01,26,04,33,-3.20
2009,01,26,04,34,-3.20
2009,01,26,04,35,-3.20
2009,01,26,04,36,-3.20
2009,01,26,04,37,-3.10
2009,01,26,04,38,-3.10
2009,01,26,04,39,-3.10
2009,01,26,04,40,-3.10
2009,01,26,04,41,-3.10
2009,01,26,04,42,-3.20
2009,01,26,04,43,-3.20
2009,01,26,04,44,-3.20
2009,01,26,04,45,-3.20
2009,01,26,04,46,-3.20
2009,01,26,04,47,-3.30
2009,01,26,04,48,-3.30
2009,01,26,04,49,-3.30
2009,01,26,04,50,-3.40
2009,01,26,04,51,-3.40
2009,01,26,04,52,-3.40
2009,01,26,04,53,-3.40
2009,01,26,04,54,-3.50
2009,01,26,04,55,-3.50
2009,01,26,04,56,-3.50
2009,01,26,04,57,-3.60
2009,01,26,04,58,-3.60
2009,01,26,04,59,-3.60
2009,01,26,05,00,-3.60
2009,01,26,05,01,-3.60
2009,01,26,05,02,-3.60
2009,01,26,05,03,-3.60
2009,01,26,05,04,-3.60
2009,01,26,05,05,-3.60
2009,01,26,05,06,-3.50
2009,01,26,05,07,-3.50
2009,01,26,05,08,-3.50
2009,01,26,05,09,-3.50
2009,01,26,05,10,-3.50
2009,01,26,05,11,-3.40
2009,01,26,05,12,-3.40
2009,01,26,05,13,-3.40
2009,01,26,05,14,-3.40
2009,01,26,05,15,-3.40
2009,01,26,05,16,-3.40
2009,01,26,05,17,-3.50
2009,01,26,05,18,-3.50
2009,01,26,05,19,-3.50
2009,01,26,05,20,-3.50
2009,01,26,05,21,-3.60
2009,01,26,05,22,-3.60
2009,01,26,05,23,-3.60
2009,01,26,05,24,-3.60
2009,01,26,05,25,-3.60
2009,01,26,05,26,-3.60
2009,01,26,05,27,-3.50
2009,01,26,05,28,-3.50
2009,01,26,05,29,-3.50
2009,01,26,05,30,-3.50
2009,01,26,05,31,-3.50
2009,01,26,05,32,-3.50
2009,01,26,05,33,-3.50
2009,01,26,05,34,-3.50
2009,01,26,05,35,-3.60
2009,01,26,05,36,-3.60
2009,01,26,05,37,-3.60
2009,01,26,05,38,-3.70
2009,01,26,05,39,-3.70
2009,01,26,05,40,-3.70
2009,01,26,05,41,-3.70
2009,01,26,05,42,-3.70
2009,01,26,05,43,-3.70
2009,01,26,05,44,-3.70
2009,01,26,05,45,-3.70
2009,01,26,05,46,-3.70
2009,01,26,05,47,-3.70
2009,01,26,05,48,-3.70
2009,01,26,05,49,-3.70
2009,01,26,05,50,-3.70
2009,01,26,05,51,-3.70
2009,01,26,05,52,-3.70
2009,01,26,05,53,-3.70
2009,01,26,05,54,-3.80
2009,01,26,05,55,-3.80
2009,01,26,05,56,-3.80
2009,01,26,05,57,-3.80
2009,01,26,05,58,-3.80
2009,01,26,05,59,-3.80
2009,01,26,06,00,-3.80
2009,01,26,06,01,-3.80
2009,01,26,06,02,-3.90
2009,01,26,06,03,-3.90
2009,01,26,06,04,-3.90
2009,01,26,06,05,-3.90
2009,01,26,06,06,-3.90
2009,01,26,06,07,-4.00
2009,01,26,06,08,-4.00
2009,01,26,06,09,-4.00
2009,01,26,06,10,-4.10
2009,01,26,06,11,-4.10
2009,01,26,06,12,-4.10
2009,01,26,06,13,-4.10
2009,01,26,06,14,-4.20
2009,01,26,06,15,-4.20
2009,01,26,06,16,-4.20
2009,01,26,06,17,-4.20
2009,01,26,06,18,-4.20
2009,01,26,06,19,-4.20
2009,01,26,06,20,-4.20
2009,01,26,06,21,-4.20
2009,01,26,06,22,-4.20
2009,01,26,06,23,-4.20
2009,01,26,06,24,-4.10
2009,01,26,06,25,-4.10
2009,01,26,06,26,-4.10
2009,01,26,06,27,-4.10
2009,01,26,06,28,-4.10
2009,01,26,06,29,-4.10
2009,01,26,06,30,-4.10
2009,01,26,06,31,-4.10
2009,01,26,06,32,-4.10
2009,01,26,06,33,-4.10
2009,01,26,06,34,-4.10
2009,01,26,06,35,-4.20
2009,01,26,06,36,-4.20
2009,01,26,06,37,-4.20
2009,01,26,06,38,-4.20
2009,01,26,06,39,-4.20
2009,01,26,06,40,-4.20
2009,01,26,06,41,-4.20
2009,01,26,06,42,-4.30
2009,01,26,06,43,-4.30
2009,01,26,06,44,-4.30
2009,01,26,06,45,-4.30
2009,01,26,06,46,-4.30
2009,01,26,06,47,-4.30
2009,01,26,06,48,-4.30
2009,01,26,06,49,-4.30
2009,01,26,06,50,-4.30
2009,01,26,06,51,-4.30
2009,01,26,06,52,-4.30
2009,01,26,06,53,-4.30
2009,01,26,06,54,-4.30
2009,01,26,06,55,-4.20
2009,01,26,06,56,-4.20
2009,01,26,06,57,-4.20
2009,01,26,06,58,-4.20
2009,01,26,06,59,-4.20
2009,01,26,07,00,-4.20
2009,01,26,07,01,-4.10
2009,01,26,07,02,-4.10
2009,01,26,07,03,-4.10
2009,01,26,07,04,-4.10
2009,01,26,07,05,-4.10
2009,01,26,07,06,-4.10
2009,01,26,07,07,-4.10
2009,01,26,07,08,-4.10
2009,01,26,07,09,-4.10
2009,01,26,07,10,-4.10
2009,01,26,07,11,-4.10
2009,01,26,07,12,-4.10
2009,01,26,07,13,-4.10
2009,01,26,07,14,-4.00
2009,01,26,07,15,-4.00
2009,01,26,07,16,-4.00
2009,01,26,07,17,-3.90
2009,01,26,07,18,-3.90
2009,01,26,07,19,-3.90
2009,01,26,07,20,-3.90
2009,01,26,07,21,-3.90
2009,01,26,07,22,-3.90
2009,01,26,07,23,-3.90
2009,01,26,07,24,-3.90
2009,01,26,07,25,-3.90
2009,01,26,07,26,-3.90
2009,01,26,07,27,-3.90
2009,01,26,07,28,-3.90
2009,01,26,07,29,-3.90
2009,01,26,07,30,-3.90
2009,01,26,07,31,-3.90
2009,01,26,07,32,-3.90
2009,01,26,07,33,-3.90
2009,01,26,07,34,-4.00
2009,01,26,07,35,-4.00
2009,01,26,07,36,-4.00
2009,01,26,07,37,-4.00
2009,01,26,07,38,-4.00
2009,01,26,07,39,-4.00
2009,01,26,07,40,-4.00
2009,01,26,07,41,-4.00
2009,01,26,07,42,-4.00
2009,01,26,07,43,-4.00
2009,01,26,07,44,-4.00
2009,01,26,07,45,-4.00
2009,01,26,07,46,-4.00
2009,01,26,07,47,-4.00
2009,01,26,07,48,-4.00
2009,01,26,07,49,-4.00
2009,01,26,07,50,-4.00
2009,01,26,07,51,-4.00
2009,01,26,07,52,-4.10
2009,01,26,07,53,-4.10
2009,01,26,07,54,-4.10
2009,01,26,07,55,-4.10
2009,01,26,07,56,-4.10
2009,01,26,07,57,-4.10
2009,01,26,07,58,-4.10
2009,01,26,07,59,-4.10
2009,01,26,08,00,-4.10
2009,01,26,08,01,-4.10
2009,01,26,08,02,-4.10
2009,01,26,08,03,-4.10
2009,01,26,08,04,-4.10
2009,01,26,08,05,-4.00
2009,01,26,08,06,-4.00
2009,01,26,08,07,-4.00
2009,01,26,08,08,-3.90
2009,01,26,08,09,-3.90
2009,01,26,08,10,-3.80
2009,01,26,08,11,-3.80
2009,01,26,08,12,-3.70
2009,01,26,08,13,-3.60
2009,01,26,08,14,-3.60
2009,01,26,08,15,-3.50
2009,01,26,08,16,-3.50
2009,01,26,08,17,-3.40
2009,01,26,08,18,-3.40
2009,01,26,08,19,-3.30
2009,01,26,08,20,-3.30
2009,01,26,08,21,-3.20
2009,01,26,08,22,-3.20
2009,01,26,08,23,-3.20
2009,01,26,08,24,-3.10
2009,01,26,08,25,-3.10
2009,01,26,08,26,-3.00
2009,01,26,08,27,-3.00
2009,01,26,08,28,-2.90
2009,01,26,08,29,-2.90
2009,01,26,08,30,-2.90
2009,01,26,08,31,-2.80
2009,01,26,08,32,-2.80
2009,01,26,08,33,-2.70
2009,01,26,08,34,-2.70
2009,01,26,08,35,-2.60
2009,01,26,08,36,-2.60
2009,01,26,08,37,-2.60
2009,01,26,08,38,-2.60
2009,01,26,08,39,-2.50
2009,01,26,08,40,-2.50
2009,01,26,08,41,-2.50
2009,01,26,08,42,-2.40
2009,01,26,08,43,-2.40
2009,01,26,08,44,-2.30
2009,01,26,08,45,-2.30
2009,01,26,08,46,-2.30
2009,01,26,08,47,-2.20
2009,01,26,08,48,-2.10
2009,01,26,08,49,-2.10
2009,01,26,08,50,-2.00
2009,01,26,08,51,-2.00
2009,01,26,08,52,-1.90
2009,01,26,08,53,-1.90
2009,01,26,08,54,-1.90
2009,01,26,08,55,-1.80
2009,01,26,08,56,-1.80
2009,01,26,08,57,-1.80
2009,01,26,08,58,-1.70
2009,01,26,08,59,-1.70
2009,01,26,09,00,-1.60
2009,01,26,09,01,-1.60
2009,01,26,09,02,-1.60
2009,01,26,09,03,-1.50
2009,01,26,09,04,-1.50
2009,01,26,09,05,-1.40
2009,01,26,09,06,-1.40
2009,01,26,09,07,-1.30
2009,01,26,09,08,-1.30
2009,01,26,09,09,-1.20
2009,01,26,09,10,-1.20
2009,01,26,09,11,-1.20
2009,01,26,09,12,-1.20
2009,01,26,09,13,-1.10
2009,01,26,09,14,-1.10
2009,01,26,09,15,-1.10
2009,01,26,09,16,-1.10
2009,01,26,09,17,-1.10
2009,01,26,09,18,-1.10
2009,01,26,09,19,-1.00
2009,01,26,09,20,-1.10
2009,01,26,09,21,-1.10
2009,01,26,09,22,-1.10
2009,01,26,09,23,-1.10
2009,01,26,09,24,-1.10
2009,01,26,09,25,-1.10
2009,01,26,09,26,-1.00
2009,01,26,09,27,-1.00
2009,01,26,09,28,-1.00
2009,01,26,09,29,-0.90
2009,01,26,09,30,-0.90
2009,01,26,09,31,-0.90
2009,01,26,09,32,-0.90
2009,01,26,09,33,-0.90
2009,01,26,09,34,-0.80
2009,01,26,09,35,-0.80
2009,01,26,09,36,-0.80
2009,01,26,09,37,-0.70
2009,01,26,09,38,-0.60
2009,01,26,09,39,-0.60
2009,01,26,09,40,-0.50
2009,01,26,09,41,-0.40
2009,01,26,09,42,-0.30
2009,01,26,09,43,-0.30
2009,01,26,09,44,-0.20
2009,01,26,09,45,-0.20
2009,01,26,09,46,-0.10
2009,01,26,09,47,0.00
2009,01,26,09,48,0.00
2009,01,26,09,49,0.00
2009,01,26,09,50,0.00
2009,01,26,09,51,0.00
2009,01,26,09,52,0.00
2009,01,26,09,53,0.00
2009,01,26,09,54,0.00
2009,01,26,09,55,0.10
2009,01,26,09,56,0.10
2009,01,26,09,57,0.10
2009,01,26,09,58,0.10
2009,01,26,09,59,0.20
2009,01,26,10,00,0.20
2009,01,26,10,01,0.20
2009,01,26,10,02,0.20
2009,01,26,10,03,0.20
2009,01,26,10,04,0.20
2009,01,26,10,05,0.20
2009,01,26,10,06,0.20
2009,01,26,10,07,0.20
2009,01,26,10,08,0.20
2009,01,26,10,09,0.20
2009,01,26,10,10,0.20
2009,01,26,10,11,0.20
2009,01,26,10,12,0.30
2009,01,26,10,13,0.30
2009,01,26,10,14,0.30
2009,01,26,10,15,0.30
2009,01,26,10,16,0.30
2009,01,26,10,17,0.40
2009,01,26,10,18,0.40
2009,01,26,10,19,0.40
2009,01,26,10,20,0.50
2009,01,26,10,21,0.50
2009,01,26,10,22,0.50
2009,01,26,10,23,0.50
2009,01,26,10,24,0.60
2009,01,26,10,25,0.60
2009,01,26,10,26,0.60
2009,01,26,10,27,0.60
2009,01,26,10,28,0.60
2009,01,26,10,29,0.60
2009,01,26,10,30,0.60
2009,01,26,10,31,0.60
2009,01,26,10,32,0.60
2009,01,26,10,33,0.60
2009,01,26,10,34,0.60
2009,01,26,10,35,0.70
2009,01,26,10,36,0.70
2009,01,26,10,37,0.70
2009,01,26,10,38,0.70
2009,01,26,10,39,0.70
2009,01,26,10,40,0.70
2009,01,26,10,41,0.70
2009,01,26,10,42,0.70
2009,01,26,10,43,0.70
2009,01,26,10,44,0.70
2009,01,26,10,45,0.70
2009,01,26,10,46,0.70
2009,01,26,10,47,0.80
2009,01,26,10,48,0.80
2009,01,26,10,49,0.80
2009,01,26,10,50,0.80
2009,01,26,10,51,0.80
2009,01,26,10,52,0.80
2009,01,26,10,53,0.80
2009,01,26,10,54,0.80
2009,01,26,10,55,0.80
2009,01,26,10,56,0.80
2009,01,26,10,57,0.80
2009,01,26,10,58,0.80
2009,01,26,10,59,0.80
2009,01,26,11,00,0.80
2009,01,26,11,01,0.80
2009,01,26,11,02,0.80
2009,01,26,11,03,0.90
2009,01,26,11,04,0.90
2009,01,26,11,05,0.90
2009,01,26,11,06,0.90
2009,01,26,11,07,0.90
2009,01,26,11,08,0.90
2009,01,26,11,09,0.90
2009,01,26,11,10,1.00
2009,01,26,11,11,1.00
2009,01,26,11,12,1.00
2009,01,26,11,13,1.00
2009,01,26,11,14,1.00
2009,01,26,11,15,1.10
2009,01,26,11,16,1.10
2009,01,26,11,17,1.10
2009,01,26,11,18,1.00
2009,01,26,11,19,1.00
2009,01,26,11,20,1.00
2009,01,26,11,21,1.00
2009,01,26,11,22,1.00
2009,01,26,11,23,1.00
2009,01,26,11,24,1.10
2009,01,26,11,25,1.10
2009,01,26,11,26,1.10
2009,01,26,11,27,1.10
2009,01,26,11,28,1.10
2009,01,26,11,29,1.20
2009,01,26,11,30,1.20
2009,01,26,11,31,1.20
2009,01,26,11,32,1.20
2009,01,26,11,33,1.20
2009,01,26,11,34,1.20
2009,01,26,11,35,1.20
2009,01,26,11,36,1.20
2009,01,26,11,37,1.20
2009,01,26,11,38,1.20
2009,01,26,11,39,1.20
2009,01,26,11,40,1.20
2009,01,26,11,41,1.20
2009,01,26,11,42,1.20
2009,01,26,11,43,1.10
2009,01,26,11,44,1.10
2009,01,26,11,45,1.10
2009,01,26,11,46,1.10
2009,01,26,11,47,1.10
2009,01,26,11,48,1.10
2009,01,26,11,49,1.20
2009,01,26,11,50,1.20
2009,01,26,11,51,1.20
2009,01,26,11,52,1.10
2009,01,26,11,53,1.10
2009,01,26,11,54,1.10
2009,01,26,11,55,1.10
2009,01,26,11,56,1.10
2009,01,26,11,57,1.20
2009,01,26,11,58,1.20
2009,01,26,11,59,1.20
2009,01,26,12,00,1.20
2009,01,26,12,01,1.20
2009,01,26,12,02,1.20
2009,01,26,12,03,1.20
2009,01,26,12,04,1.20
2009,01,26,12,05,1.20
2009,01,26,12,06,1.20
2009,01,26,12,07,1.20
2009,01,26,12,08,1.20
2009,01,26,12,09,1.20
2009,01,26,12,10,1.30
2009,01,26,12,11,1.30
2009,01,26,12,12,1.30
2009,01,26,12,13,1.30
2009,01,26,12,14,1.30
2009,01,26,12,15,1.30
2009,01,26,12,16,1.30
2009,01,26,12,17,1.30
2009,01,26,12,18,1.30
2009,01,26,12,19,1.30
2009,01,26,12,20,1.30
2009,01,26,12,21,1.30
2009,01,26,12,22,1.30
2009,01,26,12,23,1.30
2009,01,26,12,24,1.40
2009,01,26,12,25,1.40
2009,01,26,12,26,1.40
2009,01,26,12,27,1.40
2009,01,26,12,28,1.40
2009,01,26,12,29,1.30
2009,01,26,12,30,1.40
2009,01,26,12,31,1.40
2009,01,26,12,32,1.40
2009,01,26,12,33,1.40
2009,01,26,12,34,1.40
2009,01,26,12,35,1.40
2009,01,26,12,36,1.40
2009,01,26,12,37,1.50
2009,01,26,12,38,1.50
2009,01,26,12,39,1.50
2009,01,26,12,40,1.50
2009,01,26,12,41,1.50
2009,01,26,12,42,1.50
2009,01,26,12,43,1.50
2009,01,26,12,44,1.50
2009,01,26,12,45,1.50
2009,01,26,12,46,1.50
2009,01,26,12,47,1.60
2009,01,26,12,48,1.60
2009,01,26,12,49,1.60
2009,01,26,12,50,1.70
2009,01,26,12,51,1.60
2009,01,26,12,52,1.60
2009,01,26,12,53,1.60
2009,01,26,12,54,1.70
2009,01,26,12,55,1.70
2009,01,26,12,56,1.60
2009,01,26,12,57,1.60
2009,01,26,12,58,1.60
2009,01,26,12,59,1.60
2009,01,26,13,00,1.60
2009,01,26,13,01,1.60
2009,01,26,13,02,1.60
2009,01,26,13,03,1.50
2009,01,26,13,04,1.60
2009,01,26,13,05,1.60
2009,01,26,13,06,1.60
2009,01,26,13,07,1.60
2009,01,26,13,08,1.60
2009,01,26,13,09,1.60
2009,01,26,13,10,1.60
2009,01,26,13,11,1.70
2009,01,26,13,12,1.70
2009,01,26,13,13,1.70
2009,01,26,13,14,1.70
2009,01,26,13,15,1.80
2009,01,26,13,16,1.80
2009,01,26,13,17,1.80
2009,01,26,13,18,1.80
2009,01,26,13,19,1.80
2009,01,26,13,20,1.80
2009,01,26,13,21,1.80
2009,01,26,13,22,1.80
2009,01,26,13,23,1.80
2009,01,26,13,24,1.80
2009,01,26,13,25,1.80
2009,01,26,13,26,1.80
2009,01,26,13,27,1.80
2009,01,26,13,28,1.80
2009,01,26,13,29,1.80
2009,01,26,13,30,1.80
2009,01,26,13,31,1.80
2009,01,26,13,32,1.80
2009,01,26,13,33,1.80
2009,01,26,13,34,1.80
2009,01,26,13,35,1.80
2009,01,26,13,36,1.80
2009,01,26,13,37,1.80
2009,01,26,13,38,1.80
2009,01,26,13,39,1.80
2009,01,26,13,40,1.80
2009,01,26,13,41,1.80
2009,01,26,13,42,1.80
2009,01,26,13,43,1.80
2009,01,26,13,44,1.80
2009,01,26,13,45,1.80
2009,01,26,13,46,1.80
2009,01,26,13,47,1.80
2009,01,26,13,48,1.80
2009,01,26,13,49,1.80
2009,01,26,13,50,1.80
2009,01,26,13,51,1.80
2009,01,26,13,52,1.80
2009,01,26,13,53,1.80
2009,01,26,13,54,1.80
2009,01,26,13,55,1.80
2009,01,26,13,56,1.80
2009,01,26,13,57,1.80
2009,01,26,13,58,1.80
2009,01,26,13,59,1.80
2009,01,26,14,00,1.80
2009,01,26,14,01,1.80
2009,01,26,14,02,1.80
2009,01,26,14,03,1.80
2009,01,26,14,04,1.80
2009,01,26,14,05,1.80
2009,01,26,14,06,1.80
2009,01,26,14,07,1.80
2009,01,26,14,08,1.80
2009,01,26,14,09,1.80
2009,01,26,14,10,1.80
2009,01,26,14,11,1.80
2009,01,26,14,12,1.80
2009,01,26,14,13,1.80
2009,01,26,14,14,1.80
2009,01,26,14,15,1.80
2009,01,26,14,16,1.80
2009,01,26,14,17,1.80
2009,01,26,14,18,1.80
2009,01,26,14,19,1.80
2009,01,26,14,20,1.80
2009,01,26,14,21,1.80
2009,01,26,14,22,1.80
2009,01,26,14,23,1.70
2009,01,26,14,24,1.70
2009,01,26,14,25,1.80
2009,01,26,14,26,1.70
2009,01,26,14,27,1.70
2009,01,26,14,28,1.70
2009,01,26,14,29,1.70
2009,01,26,14,30,1.70
2009,01,26,14,31,1.70
2009,01,26,14,32,1.70
2009,01,26,14,33,1.70
2009,01,26,14,34,1.70
2009,01,26,14,35,1.70
2009,01,26,14,36,1.70
2009,01,26,14,37,1.70
2009,01,26,14,38,1.80
2009,01,26,14,39,1.80
2009,01,26,14,40,1.80
2009,01,26,14,41,1.80
2009,01,26,14,42,1.80
2009,01,26,14,43,1.80
2009,01,26,14,44,1.80
2009,01,26,14,45,1.80
2009,01,26,14,46,1.80
2009,01,26,14,47,1.80
2009,01,26,14,48,1.80
2009,01,26,14,49,1.90
2009,01,26,14,50,1.90
2009,01,26,14,51,1.90
2009,01,26,14,52,1.90
2009,01,26,14,53,1.90
2009,01,26,14,54,1.90
2009,01,26,14,55,1.90
2009,01,26,14,56,1.90
2009,01,26,14,57,1.90
2009,01,26,14,58,1.90
2009,01,26,14,59,1.90
2009,01,26,15,00,1.90
2009,01,26,15,01,1.90
2009,01,26,15,02,1.90
2009,01,26,15,03,1.90
2009,01,26,15,04,1.90
2009,01,26,15,05,1.90
2009,01,26,15,06,1.90
2009,01,26,15,07,1.90
2009,01,26,15,08,1.90
2009,01,26,15,09,1.90
2009,01,26,15,10,1.90
2009,01,26,15,11,1.90
2009,01,26,15,12,1.90
2009,01,26,15,13,1.90
2009,01,26,15,14,1.90
2009,01,26,15,15,1.90
2009,01,26,15,16,1.90
2009,01,26,15,17,1.80
2009,01,26,15,18,1.80
2009,01,26,15,19,1.80
2009,01,26,15,20,1.80
2009,01,26,15,21,1.80
2009,01,26,15,22,1.80
2009,01,26,15,23,1.80
2009,01,26,15,24,1.80
2009,01,26,15,25,1.80
2009,01,26,15,26,1.80
2009,01,26,15,27,1.80
2009,01,26,15,28,1.80
2009,01,26,15,29,1.80
2009,01,26,15,30,1.80
2009,01,26,15,31,1.80
2009,01,26,15,32,1.80
2009,01,26,15,33,1.80
2009,01,26,15,34,1.80
2009,01,26,15,35,1.80
2009,01,26,15,36,1.80
2009,01,26,15,37,1.80
2009,01,26,15,38,1.80
2009,01,26,15,39,1.80
2009,01,26,15,40,1.80
2009,01,26,15,41,1.80
2009,01,26,15,42,1.80
2009,01,26,15,43,1.80
2009,01,26,15,44,1.80
2009,01,26,15,45,1.80
2009,01,26,15,46,1.80
2009,01,26,15,47,1.80
2009,01,26,15,48,1.80
2009,01,26,15,49,1.80
2009,01,26,15,50,1.80
2009,01,26,15,51,1.80
2009,01,26,15,52,1.80
2009,01,26,15,53,1.80
2009,01,26,15,54,1.80
2009,01,26,15,55,1.80
2009,01,26,15,56,1.80
2009,01,26,15,57,1.90
2009,01,26,15,58,1.90
2009,01,26,15,59,1.90
2009,01,26,16,00,1.90
2009,01,26,16,01,1.90
2009,01,26,16,02,1.90
2009,01,26,16,03,1.90
2009,01,26,16,04,1.90
2009,01,26,16,05,1.90
2009,01,26,16,06,1.90
2009,01,26,16,07,1.90
2009,01,26,16,08,1.90
2009,01,26,16,09,1.90
2009,01,26,16,10,1.90
2009,01,26,16,11,1.90
2009,01,26,16,12,1.90
2009,01,26,16,13,1.90
2009,01,26,16,14,1.90
2009,01,26,16,15,1.90
2009,01,26,16,16,1.90
2009,01,26,16,17,1.90
2009,01,26,16,18,1.80
2009,01,26,16,19,1.80
2009,01,26,16,20,1.80
2009,01,26,16,21,1.80
2009,01,26,16,22,1.80
2009,01,26,16,23,1.80
2009,01,26,16,24,1.80
2009,01,26,16,25,1.80
2009,01,26,16,26,1.80
2009,01,26,16,27,1.80
2009,01,26,16,28,1.80
2009,01,26,16,29,1.80
2009,01,26,16,30,1.80
2009,01,26,16,31,1.80
2009,01,26,16,32,1.80
2009,01,26,16,33,1.80
2009,01,26,16,34,1.80
2009,01,26,16,35,1.80
2009,01,26,16,36,1.70
2009,01,26,16,37,1.70
2009,01,26,16,38,1.70
2009,01,26,16,39,1.70
2009,01,26,16,40,1.70
2009,01,26,16,41,1.70
2009,01,26,16,42,1.70
2009,01,26,16,43,1.70
2009,01,26,16,44,1.70
2009,01,26,16,45,1.70
2009,01,26,16,46,1.70
2009,01,26,16,47,1.70
2009,01,26,16,48,1.60
2009,01,26,16,49,1.60
2009,01,26,16,50,1.60
2009,01,26,16,51,1.60
2009,01,26,16,52,1.60
2009,01,26,16,53,1.60
2009,01,26,16,54,1.60
2009,01,26,16,55,1.50
2009,01,26,16,56,1.50
2009,01,26,16,57,1.50
2009,01,26,16,58,1.50
2009,01,26,16,59,1.50
2009,01,26,17,00,1.50
2009,01,26,17,01,1.40
2009,01,26,17,02,1.40
2009,01,26,17,03,1.40
2009,01,26,17,04,1.40
2009,01,26,17,05,1.30
2009,01,26,17,06,1.30
2009,01,26,17,07,1.30
2009,01,26,17,08,1.30
2009,01,26,17,09,1.30
2009,01,26,17,10,1.30
2009,01,26,17,11,1.30
2009,01,26,17,12,1.30
2009,01,26,17,13,1.30
2009,01,26,17,14,1.30
2009,01,26,17,15,1.30
2009,01,26,17,16,1.30
2009,01,26,17,17,1.30
2009,01,26,17,18,1.30
2009,01,26,17,19,1.30
2009,01,26,17,20,1.20
2009,01,26,17,21,1.20
2009,01,26,17,22,1.20
2009,01,26,17,23,1.20
2009,01,26,17,24,1.10
2009,01,26,17,25,1.10
2009,01,26,17,26,1.10
2009,01,26,17,27,1.10
2009,01,26,17,28,1.00
2009,01,26,17,29,1.00
2009,01,26,17,30,0.90
2009,01,26,17,31,0.90
2009,01,26,17,32,0.80
2009,01,26,17,33,0.80
2009,01,26,17,34,0.80
2009,01,26,17,35,0.80
2009,01,26,17,36,0.70
2009,01,26,17,37,0.70
2009,01,26,17,38,0.70
2009,01,26,17,39,0.70
2009,01,26,17,40,0.70